軌道要素
Epoch 2011 Apr. 29.0 TT = JDT 2455680.5
T 2011 May 10.36257 TT MPC
q 2.7679684 (2000.0) P Q
n 0.05926966 Peri. 221.61818 -0.11361336 -0.98578497
a 6.5150004 Node 235.26467 +0.94670003 -0.06962013
e 0.5751392 Incl. 8.66255 +0.30141508 -0.15290858
P 16.6
From 158 observations 2010 Sept. 12-2012 Mar. 23, mean residual 0".5.
|